KDAL

Dallas Love Field

Airport
ICAO code
KDAL
IATA Code
DAL
Summary
ICAO Region
NAM
ICAO Territory
Location

Dallas, Texas,

Serving
Dallas
Elevation
487 ft
Coordinates
32° 50' 37" N , 96° 51' 10" W
KCC
Airport LOS
Parallel Runway Operation
Metar
Observation
KDAL 302142Z 35010KT 4SM BR FEW007 BKN009 OVC015 M02/M03 A3027 RMK AO2 FZRAE24FZDZB24E42PLE24 P0000 I1001 T10221033 $
Station
Dallas, Dallas Love Field
Date/Time
2023-01-30 22:42:00
Wind direction
350°
Wind speed
10 kts
Lowest cloud amount
few clouds
Temperature
-2.2°C
Dew point
-3.3°C
Humidity
92%
Weather condition
mist

Description

Dallas Love Field is a city-owned public-use airport located 10 km northwest of the central business district of Dallas, a city in Dallas County, Texas, United States.

Climatology

Humid “subtropical” climate (Köppen climate classification Cfa) - characterized by hot, humid summers and cool winters. Significant amounts of precipitation occur in all seasons in most areas. Winter rainfall (and sometimes snowfall) is associated with large storms that the westerlies steer from west to east. Most summer rainfall occurs during thunderstorms and occasional tropical storms (hurricanes).

Airport map

Aerial View

SKYbrary Partners:

Safety knowledge contributed by: